Weather History for KSDM - November, 2012

Change the Weather History Date:

Tuesday, November 27, 2012

  Actual Average Record
Temperature  
Mean Temperature 57 °F -  
Max Temperature 68 °F 64 °F 87 °F (2014)
Min Temperature 46 °F 44 °F 37 °F (2010)
Degree Days  
Heating Degree Days 8    
Growing Degree Days 7 (Base 50)    
Moisture  
Dew Point 52 °F    
Average Humidity 91    
Maximum Humidity 100    
Minimum Humidity 56    
Precipitation  
Precipitation 0.00 in - - ()
Sea Level Pressure  
Sea Level Pressure 30.12 in    
Wind  
Wind Speed 2 mph (NNW)    
Max Wind Speed 8 mph    
Max Gust Speed -    
Visibility 6 miles    
Events      
Averages and records for this station are not official NWS values.
T = Trace of Precipitation, MM = Missing Value Source: NWS Daily Summary

Daily Weather History Graph

Daily Weather History Graph

Search for Another Location

Airport or City:

Trip Planner

Search our weather history database for the weather conditions in past years. The results will help you decide how hot, cold, wet, or windy it might be!

Date:

Astronomy

Nov. 27, 2012 Rise Set
Actual Time 6:28 AM PST 4:42 PM PST
Civil Twilight 6:02 AM PST 5:09 PM PST
Nautical Twilight 5:31 AM PST 5:39 PM PST
Astronomical Twilight 5:02 AM PST 6:09 PM PST
Moon 4:16 PM PST (11/27) 5:39 AM PST (11/27)
Length of Visible Light 11h 06m
Length of Day
10h 13m
Waxing Gibbous, 99% of the Moon is Illuminated
Nov 27
Waxing Gibbous
Nov 28
Full
Dec 6
Last Quarter
Dec 13
New
Dec 19
First Quarter

Hourly Weather History & Observations

Time (PST) Temp. Windchill Dew Point Humidity Pressure Visibility Wind Dir Wind Speed Gust Speed Precip Events Conditions
12:53 AM 48.0 °F - 48.0 °F 100% 30.09 in 5.0 mi Calm Calm - N/A   Clear
1:53 AM 48.9 °F - 48.0 °F 97% 30.09 in 6.0 mi ENE 3.5 mph - N/A   Clear
2:53 AM 50.0 °F - 48.9 °F 96% 30.08 in 9.0 mi ENE 3.5 mph - N/A   Clear
3:53 AM 46.0 °F 43.9 °F 46.0 °F 100% 30.08 in 6.0 mi SE 4.6 mph - N/A   Clear
4:23 AM 48.2 °F - 46.4 °F 93% 30.07 in 2.5 mi ESE 5.8 mph - N/A   Clear
4:31 AM 46.4 °F 43.5 °F 46.4 °F 100% 30.08 in 3.0 mi WSW 5.8 mph - N/A   Clear
4:53 AM 48.9 °F - 48.9 °F 100% 30.09 in 2.5 mi Calm Calm - N/A   Clear
5:05 AM 48.2 °F - 48.2 °F 100% 30.09 in 2.0 mi Calm Calm - N/A   Clear
5:29 AM 48.2 °F - 48.2 °F 100% 30.10 in 3.0 mi Calm Calm - N/A   Clear
5:53 AM 48.9 °F - 48.0 °F 97% 30.11 in 4.0 mi Calm Calm - N/A   Clear
6:26 AM 51.8 °F - 50.0 °F 94% 30.15 in 5.0 mi WNW 4.6 mph - N/A   Scattered Clouds
6:35 AM 51.8 °F - 51.8 °F 100% 30.16 in 5.0 mi WNW 3.5 mph - N/A   Mostly Cloudy
6:45 AM 51.8 °F - 51.8 °F 100% 30.16 in 5.0 mi Calm Calm - N/A   Overcast
6:53 AM 52.0 °F - 51.1 °F 97% 30.16 in 4.0 mi Calm Calm - N/A   Overcast
7:46 AM 51.8 °F - 51.8 °F 100% 30.17 in 2.5 mi ENE 5.8 mph - N/A   Overcast
7:53 AM 53.1 °F - 52.0 °F 96% 30.17 in 2.0 mi NE 4.6 mph - N/A   Overcast
8:07 AM 53.6 °F - 53.6 °F 100% 30.17 in 2.5 mi NE 3.5 mph - N/A   Overcast
8:15 AM 53.6 °F - 53.6 °F 100% 30.17 in 3.0 mi NE 4.6 mph - N/A   Overcast
8:33 AM 55.4 °F - 53.6 °F 94% 30.18 in 6.0 mi Calm Calm - N/A   Overcast
8:53 AM 55.9 °F - 54.0 °F 93% 30.18 in 8.0 mi Calm Calm - N/A   Overcast
9:10 AM 57.2 °F - 55.4 °F 94% 30.18 in 9.0 mi Calm Calm - N/A   Overcast
9:53 AM 59.0 °F - 53.1 °F 81% 30.17 in 9.0 mi Variable 3.5 mph - N/A   Mostly Cloudy
10:05 AM 60.8 °F - 53.6 °F 77% 30.17 in 10.0 mi Calm Calm - N/A   Partly Cloudy
10:53 AM 62.1 °F - 53.1 °F 72% 30.14 in 10.0 mi Calm Calm - N/A   Clear
11:53 AM 64.0 °F - 53.1 °F 67% 30.09 in 10.0 mi WNW 4.6 mph - N/A   Clear
12:53 PM 68.0 °F - 52.0 °F 56% 30.06 in 10.0 mi Variable 3.5 mph - N/A   Clear
1:53 PM 64.9 °F - 55.0 °F 70% 30.04 in 10.0 mi West 8.1 mph - N/A   Clear
2:53 PM 61.0 °F - 55.0 °F 81% 30.04 in 7.0 mi WNW 6.9 mph - N/A   Clear
3:49 PM 59.0 °F - 55.4 °F 88% 30.08 in 7.0 mi WNW 6.9 mph - N/A   Mostly Cloudy
3:53 PM 59.0 °F - 55.0 °F 87% 30.08 in 7.0 mi Variable 3.5 mph - N/A   Mostly Cloudy
4:53 PM 57.9 °F - 55.0 °F 90% 30.09 in 6.0 mi West 4.6 mph - N/A   Overcast
5:30 PM 57.2 °F - 55.4 °F 94% 30.09 in 7.0 mi Calm Calm - N/A   Mostly Cloudy
5:53 PM 57.0 °F - 55.0 °F 93% 30.09 in 6.0 mi Calm Calm - N/A   Mostly Cloudy
6:53 PM 57.9 °F - 55.0 °F 90% 30.12 in 7.0 mi Calm Calm - N/A   Overcast
7:53 PM 57.9 °F - 55.0 °F 90% 30.13 in 6.0 mi Calm Calm - N/A   Overcast
8:53 PM 57.9 °F - 54.0 °F 87% 30.13 in 5.0 mi Calm Calm - N/A   Overcast
9:53 PM 57.9 °F - 54.0 °F 87% 30.15 in 4.0 mi SSW 4.6 mph - N/A   Overcast
10:53 PM 57.9 °F - 54.0 °F 87% 30.16 in 4.0 mi Calm Calm - N/A   Overcast
11:53 PM 57.9 °F - 54.0 °F 87% 30.16 in 6.0 mi Calm Calm - N/A   Overcast